• In Russia
  • List of Countries
  • For 7 days
  • Water Temperature
  • Weather Map
  • Weather Widgets
  • user-avatar
    Login

    Hourly Weather Gaborone

    Today, 31 May, Sunday

    Time Temperature Precipitation Wind Pressure Humidity
    00:00 +15°C° 0 mm 1 mps 681 mmHg 29%
    01:00 +14°C° 0 mm 1 mps 681 mmHg 30%
    02:00 +14°C° 0 mm 1 mps 681 mmHg 31%
    03:00 +13°C° 0 mm 1 mps 681 mmHg 32%
    04:00 +13°C° 0 mm 1 mps 681 mmHg 33%
    05:00 +12°C° 0 mm 1 mps 681 mmHg 34%
    06:00 +13°C° 0 mm 1 mps 681 mmHg 33%
    07:00 +13°C° 0 mm 1 mps 682 mmHg 32%
    08:00 +14°C° 0 mm 1 mps 683 mmHg 32%
    09:00 +18°C° 0 mm 1 mps 683 mmHg 29%
    10:00 +19°C° 0 mm 2 mps 684 mmHg 26%
    11:00 +23°C° 0 mm 2 mps 684 mmHg 24%
    12:00 +24°C° 0 mm 2 mps 684 mmHg 22%
    13:00 +26°C° 0 mm 2 mps 683 mmHg 20%
    14:00 +27°C° 0 mm 2 mps 683 mmHg 17%
    15:00 +26°C° 0 mm 2 mps 683 mmHg 19%
    16:00 +25°C° 0 mm 1 mps 683 mmHg 20%
    17:00 +25°C° 0 mm 1 mps 682 mmHg 21%
    18:00 +23°C° 0 mm 1 mps 682 mmHg 24%
    19:00 +21°C° 0 mm 1 mps 682 mmHg 27%
    20:00 +19°C° 0 mm 1 mps 682 mmHg 29%
    21:00 +16°C° 0 mm 0 mps 682 mmHg 30%
    22:00 +16°C° 0 mm 0 mps 682 mmHg 31%
    23:00 +15°C° 0 mm 0 mps 682 mmHg 32%

    Tomorrow, 1 June, Monday

    Time Temperature Precipitation Wind Pressure Humidity
    00:00 +15°C° 0 mm 0 mps 682 mmHg 33%
    01:00 +14°C° 0 mm 0 mps 682 mmHg 34%
    02:00 +14°C° 0 mm 0 mps 682 mmHg 35%
    03:00 +13°C° 0 mm 0 mps 682 mmHg 36%
    04:00 +13°C° 0 mm 0 mps 682 mmHg 38%
    05:00 +12°C° 0 mm 0 mps 682 mmHg 39%
    06:00 +13°C° 0 mm 0 mps 682 mmHg 38%
    07:00 +13°C° 0 mm 0 mps 682 mmHg 37%
    08:00 +14°C° 0 mm 0 mps 683 mmHg 36%
    09:00 +17°C° 0 mm 0 mps 683 mmHg 30%
    10:00 +22°C° 0 mm 1 mps 684 mmHg 25%
    11:00 +25°C° 0 mm 1 mps 685 mmHg 20%
    12:00 +26°C° 0 mm 1 mps 684 mmHg 18%
    13:00 +27°C° 0 mm 1 mps 683 mmHg 16%
    14:00 +28°C° 0 mm 2 mps 683 mmHg 14%
    15:00 +27°C° 0 mm 1 mps 682 mmHg 15%
    16:00 +26°C° 0 mm 1 mps 682 mmHg 16%
    17:00 +25°C° 0 mm 1 mps 682 mmHg 17%
    18:00 +23°C° 0 mm 1 mps 682 mmHg 20%
    19:00 +21°C° 0 mm 1 mps 682 mmHg 23%
    20:00 +19°C° 0 mm 1 mps 681 mmHg 26%
    21:00 +17°C° 0 mm 0 mps 682 mmHg 27%
    22:00 +16°C° 0 mm 0 mps 682 mmHg 28%
    23:00 +16°C° 0 mm 0 mps 682 mmHg 30%

    Day after tomorrow, 2 June, Tuesday

    Time Temperature Precipitation Wind Pressure Humidity
    00:00 +15°C° 0 mm 0 mps 682 mmHg 30%
    01:00 +14°C° 0 mm 0 mps 681 mmHg 31%
    02:00 +15°C° 0 mm 1 mps 681 mmHg 32%
    03:00 +14°C° 0 mm 1 mps 681 mmHg 33%
    04:00 +14°C° 0 mm 1 mps 681 mmHg 34%
    05:00 +13°C° 0 mm 1 mps 681 mmHg 34%
    06:00 +14°C° 0 mm 1 mps 681 mmHg 34%
    07:00 +14°C° 0 mm 1 mps 682 mmHg 34%
    08:00 +15°C° 0 mm 1 mps 682 mmHg 34%
    09:00 +18°C° 0 mm 1 mps 683 mmHg 30%
    10:00 +21°C° 0 mm 1 mps 683 mmHg 26%
    11:00 +24°C° 0 mm 2 mps 683 mmHg 22%
    12:00 +25°C° 0 mm 2 mps 683 mmHg 20%
    13:00 +26°C° 0 mm 2 mps 682 mmHg 19%
    14:00 +28°C° 0 mm 2 mps 682 mmHg 17%
    15:00 +27°C° 0 mm 1 mps 682 mmHg 18%
    16:00 +26°C° 0 mm 1 mps 681 mmHg 20%
    17:00 +25°C° 0 mm 1 mps 681 mmHg 22%
    18:00 +23°C° 0 mm 1 mps 681 mmHg 25%
    19:00 +21°C° 0 mm 1 mps 681 mmHg 29%
    20:00 +19°C° 0 mm 1 mps 681 mmHg 32%
    21:00 +17°C° 0 mm 0 mps 681 mmHg 34%
    22:00 +16°C° 0 mm 0 mps 681 mmHg 36%
    23:00 +16°C° 0 mm 0 mps 681 mmHg 38%

    3 June, Wednesday

    Time Temperature Precipitation Wind Pressure Humidity
    00:00 +15°C° 0 mm 0 mps 681 mmHg 39%
    01:00 +15°C° 0 mm 0 mps 680 mmHg 40%
    02:00 +14°C° 0 mm 0 mps 680 mmHg 42%
    03:00 +15°C° 0 mm 1 mps 680 mmHg 45%
    04:00 +14°C° 0 mm 1 mps 680 mmHg 47%
    05:00 +13°C° 0 mm 1 mps 680 mmHg 50%
    06:00 +14°C° 0 mm 1 mps 680 mmHg 50%
    07:00 +14°C° 0 mm 1 mps 680 mmHg 49%
    08:00 +14°C° 0 mm 0 mps 681 mmHg 48%
    09:00 +18°C° 0 mm 1 mps 681 mmHg 43%
    10:00 +21°C° 0 mm 1 mps 682 mmHg 38%
    11:00 +24°C° 0 mm 1 mps 682 mmHg 32%
    12:00 +25°C° 0 mm 1 mps 681 mmHg 29%
    13:00 +26°C° 0 mm 1 mps 681 mmHg 26%
    14:00 +27°C° 0 mm 2 mps 680 mmHg 22%
    15:00 +26°C° 0 mm 1 mps 680 mmHg 23%
    16:00 +25°C° 0 mm 1 mps 680 mmHg 23%
    17:00 +25°C° 0 mm 1 mps 679 mmHg 24%
    18:00 +23°C° 0 mm 1 mps 679 mmHg 27%
    19:00 +21°C° 0 mm 1 mps 679 mmHg 30%
    20:00 +17°C° 0 mm 0 mps 679 mmHg 34%
    21:00 +16°C° 0 mm 0 mps 679 mmHg 35%
    22:00 +16°C° 0 mm 0 mps 679 mmHg 36%
    23:00 +15°C° 0 mm 0 mps 679 mmHg 37%

    4 June, Thursday

    Time Temperature Precipitation Wind Pressure Humidity
    00:00 +15°C° 0 mm 0 mps 679 mmHg 38%
    01:00 +15°C° 0 mm 0 mps 679 mmHg 39%
    02:00 +15°C° 0 mm 1 mps 679 mmHg 40%
    03:00 +15°C° 0 mm 1 mps 679 mmHg 42%
    04:00 +14°C° 0 mm 1 mps 679 mmHg 44%
    05:00 +13°C° 0 mm 1 mps 679 mmHg 45%
    06:00 +14°C° 0 mm 1 mps 679 mmHg 44%
    07:00 +14°C° 0 mm 1 mps 680 mmHg 43%
    08:00 +15°C° 0 mm 1 mps 681 mmHg 42%
    09:00 +18°C° 0 mm 1 mps 681 mmHg 37%
    10:00 +20°C° 0 mm 2 mps 682 mmHg 33%
    11:00 +22°C° 0 mm 3 mps 682 mmHg 28%
    12:00 +25°C° 0 mm 3 mps 682 mmHg 25%
    13:00 +26°C° 0 mm 3 mps 682 mmHg 23%
    14:00 +27°C° 0 mm 3 mps 681 mmHg 21%
    15:00 +26°C° 0 mm 3 mps 681 mmHg 22%
    16:00 +25°C° 0 mm 2 mps 681 mmHg 24%
    17:00 +24°C° 0 mm 2 mps 681 mmHg 25%
    18:00 +22°C° 0 mm 1 mps 681 mmHg 29%
    19:00 +20°C° 0 mm 1 mps 681 mmHg 33%
    20:00 +18°C° 0 mm 1 mps 681 mmHg 37%
    21:00 +18°C° 0 mm 1 mps 681 mmHg 39%
    22:00 +16°C° 0 mm 1 mps 681 mmHg 41%
    23:00 +16°C° 0 mm 1 mps 682 mmHg 42%

    5 June, Friday

    Time Temperature Precipitation Wind Pressure Humidity
    00:00 +15°C° 0 mm 1 mps 681 mmHg 46%
    01:00 +14°C° 0 mm 2 mps 681 mmHg 49%
    02:00 +13°C° 0 mm 2 mps 681 mmHg 52%
    03:00 +13°C° 0 mm 2 mps 681 mmHg 58%
    04:00 +12°C° 0 mm 2 mps 681 mmHg 64%
    05:00 +11°C° 0 mm 1 mps 681 mmHg 70%
    06:00 +12°C° 0 mm 1 mps 682 mmHg 73%
    07:00 +12°C° 0 mm 2 mps 682 mmHg 76%
    08:00 +12°C° 0 mm 2 mps 683 mmHg 79%
    09:00 +14°C° 0 mm 2 mps 683 mmHg 70%
    10:00 +17°C° 0 mm 2 mps 684 mmHg 61%
    11:00 +19°C° 0 mm 3 mps 684 mmHg 51%
    12:00 +20°C° 0 mm 3 mps 683 mmHg 45%
    13:00 +22°C° 0 mm 3 mps 683 mmHg 39%
    14:00 +24°C° 0 mm 3 mps 682 mmHg 33%
    15:00 +24°C° 0 mm 2 mps 682 mmHg 33%
    16:00 +23°C° 0 mm 2 mps 682 mmHg 33%
    17:00 +23°C° 0 mm 2 mps 682 mmHg 33%
    18:00 +21°C° 0 mm 1 mps 682 mmHg 37%
    19:00 +19°C° 0 mm 1 mps 682 mmHg 41%
    20:00 +15°C° 0 mm 0 mps 682 mmHg 45%
    21:00 +15°C° 0 mm 0 mps 682 mmHg 46%
    22:00 +14°C° 0 mm 0 mps 682 mmHg 47%
    23:00 +15°C° 0 mm 1 mps 682 mmHg 48%
    Show more